Torna al catalogo

STARLINK-37752

AttivoComunicazioniVLEO
NORAD 100048·PAYLOAD·🇺🇸 United States

Lanciato Jul 14, 2026 da Cape Canaveral Space Force Station

Loading…

Prossimi Passaggi (prossime 24 ore)

TLE

AggiornatoSource: Space-Track

Epoca: Sep 14, 2026, 14:28 UTC

1 A0048U 26161W   26257.60346538  .00012652  00000-0  38506-3 0  9996
2 A0048  53.1598  25.3908 0000988  75.5959 284.5153 15.34391999  9704

Traccia STARLINK-37752 in tempo reale con AllMySat

Download on the App Store